Flag for Greece Weather past 2 weeks in Lamia, Greece

Now
84 °F

Sunny.


Feels Like: 84 °F
Forecast: 68 / 98 °F
Wind: 5 mph from Northwest

Location: Anchialos Airport

Current Time: Jul 26, 2014 at 10:28:28 AM

Latest Report: Jul 26, 2014 at 9:50 AM


Visibility: 10 mi

Pressure: 29.89 "Hg

Humidity: 45%

Dew point: 61 °F

Location of LamiaLocation

Historic Weather in Lamia — Graph

°F

Lamia temperature yesterday

Maximum temperature yesterday: 90 °F (at 2:20 PM)
Minimum temperature yesterday: 68 °F (at 6:20 AM)
Average temperature yesterday: 81 °F

Past Weeks' High & Low Weather Summary

 TemperatureHumidityPressure
High93 °F (Jul 11, 3:20 PM)88% (Jul 15, 9:50 AM)29.95 "Hg (Jul 15, 9:50 AM)
Low64 °F (Jul 15, 9:20 AM)18% (Jul 12, 2:20 PM)29.59 "Hg (Jul 11, 1:20 PM)
Average80 °F49%29.81 "Hg
* Reported Jul 11 8:20 AM — Jul 26 8:50 AM, Lamia, Weather by CustomWeather, © 2014

Note: Actual official high and low records may vary slightly from our data, if they occured in-between our weather recording intervals... More about our weather records

Advertising

Lamia weather history for previous 24 hours

 ConditionsComfort  
Time TempWeatherWind HumidityBarometerVisibility
8:50 AM
Jul 26
81 °FSunny.5 mph54%29.89 "Hg10 mi
8:20 AM77 °FSunny.5 mph61%29.89 "Hg10 mi
7:50 AM75 °FSunny.5 mph65%29.86 "Hg10 mi
7:20 AM72 °FClear.No wind69%29.86 "Hg10 mi
6:50 AM70 °FClear.3 mph73%29.86 "Hg10 mi
6:20 AM70 °FClear.3 mph73%29.86 "Hg10 mi
5:50 AM70 °FPassing clouds.3 mph73%29.86 "HgN/A
4:50 AM72 °FPassing clouds.3 mph73%29.83 "HgN/A
3:50 AM70 °FPassing clouds.3 mph73%29.86 "HgN/A
2:50 AM72 °FPassing clouds.5 mph73%29.86 "HgN/A
1:50 AM72 °FPassing clouds.2 mph78%29.86 "HgN/A
11:50 PM
Jul 25
73 °FPassing clouds.No wind78%29.86 "HgN/A
10:50 PM77 °FClear.No wind74%29.86 "Hg10 mi
9:50 PM79 °FClear.5 mph74%29.86 "Hg10 mi
8:50 PM81 °FSunny.2 mph66%29.83 "Hg10 mi
8:20 PM82 °FSunny.5 mph58%29.83 "Hg10 mi
7:50 PM84 °FSunny.7 mph51%29.80 "Hg10 mi
7:20 PM84 °FScattered clouds.8 mph51%29.80 "HgN/A
6:50 PM84 °FPartly sunny.8 mph51%29.80 "HgN/A
6:20 PM86 °FPartly sunny.8 mph46%29.80 "HgN/A
5:20 PM88 °FScattered clouds.14 mph40%29.80 "HgN/A
4:50 PM86 °FPassing clouds.14 mph46%29.80 "HgN/A
4:20 PM86 °FScattered clouds.14 mph49%29.80 "HgN/A
3:50 PM86 °FScattered clouds.15 mph43%29.80 "HgN/A
3:20 PM90 °FScattered clouds.14 mph33%29.80 "HgN/A
2:50 PM90 °FScattered clouds.13 mph33%29.80 "HgN/A
2:20 PM90 °FScattered clouds.13 mph33%29.80 "HgN/A
1:50 PM88 °FScattered clouds.12 mph35%29.80 "HgN/A
1:20 PM88 °FScattered clouds.12 mph38%29.80 "HgN/A
12:50 PM88 °FScattered clouds.10 mph38%29.83 "HgN/A
12:20 PM88 °FScattered clouds.9 mph38%29.83 "HgN/A
11:50 AM88 °FScattered clouds.8 mph38%29.83 "HgN/A
11:20 AM88 °FSunny.7 mph35%29.83 "Hg10 mi
10:50 AM88 °FSunny.2 mph35%29.83 "Hg10 mi
10:20 AM84 °FSunny.5 mph43%29.83 "Hg10 mi
Weather by CustomWeather, © 2014

See weather overviewHow to use our weather pages